Regional Weather Roundup
Issued by NWS

Home | Current Version | Previous Version | Graphics & Text | Print | Product List | Glossary On
Versions: 1 2 3 4 5 6 7 8 9 10 11 12 13 14 15 16 17 18 19 20 21 22 23 24 25 26 27 28 29 30 31 32 33 34 35 36 37 38 39 40 41 42 43 44 45 46 47 48 49 50
000
ASUS43 KDTX 221610
RWRMI
MICHIGAN HOURLY REGIONAL WEATHER ROUNDUP
NATIONAL WEATHER SERVICE DETROIT/PONTIAC MI
1200 PM EDT FRI AUG 22 2014

NOTE: "FAIR" INDICATES FEW OR NO CLOUDS BELOW 12,000 FEET WITH NO
SIGNIFICANT WEATHER AND/OR OBSTRUCTION TO VISIBILITY.

MIZ047>049-052>055-059>063-066>070-074>076-081>083-221700-
SOUTHEAST LOWER MICHIGAN

CITY           SKY/WX    TMP DP  RH WIND       PRES   REMARKS
ADRIAN         CLOUDY    77  70  79 CALM      29.99S
ALMA           CLOUDY    77  69  77 E6        29.99F
ANN ARBOR      CLOUDY    75  68  78 CALM      29.99S
BAD AXE        CLOUDY    67  67 100 N3        30.02F
CARO           PTSUNNY   75  64  70 N3        30.00S
DETROIT CITY   MOSUNNY   80  67  64 CALM      29.99R
DETROIT        PTSUNNY   79  70  73 VRB3      29.98F
FLINT          MOSUNNY   80  66  62 CALM      29.99S
GROSSE ILE     MOSUNNY   77  72  83 S3        29.97S HAZE
HILLSDALE      CLOUDY    74  74  99 CALM      30.00F
HOWELL         CLOUDY    74  69  85 S3        30.00S HAZE

CITY           SKY/WX    TMP DP  RH WIND       PRES   REMARKS
JACKSON        CLOUDY    77  69  76 SW6       29.99F
LAMBERTVILLE   CLOUDY    79  70  73 SW5       29.98S
LANSING        CLOUDY    77  70  79 VRB5      29.99F
LAPEER         CLOUDY    74  64  69 CALM      30.01S
MASON          CLOUDY    72  71  96 SE3       29.99S
MONROE         CLOUDY    77  70  78 CALM      29.97R
MT. CLEMENS    PTSUNNY   77  64  64 E7        29.98S
PONTIAC        PTSUNNY   78  66  66 NE6       29.98F
PORT HOPE        N/A     66  62  87 E3        30.01S
PORT HURON     MOSUNNY   73  66  78 N5        29.99F
TRI CITIES     CLOUDY    75  65  70 E6        30.01S
TROY           PTSUNNY   77  67  70 E3        30.01R
SAGINAW HB     CLOUDY    73  64  73 CALM      30.01R
$$
MIZ043>046-050>051-056>058-064>065-071>073-077>080-221700-
SOUTHWEST LOWER MICHIGAN

CITY           SKY/WX    TMP DP  RH WIND       PRES   REMARKS
BATTLE CREEK   CLOUDY    74  70  87 SW7       30.00S
BENTON HARBOR  CLOUDY    78  71  79 VRB5      29.97R
BIG RAPIDS     CLOUDY    71  68  88 S7        30.00S
COLDWATER      CLOUDY    77  73  87 W5        29.99S
FREMONT        CLOUDY    74  71  88 NE6       29.98S FOG
HOLLAND        CLOUDY    75  71  87 S8        30.00R
GRAND RAPIDS   CLOUDY    76  74  93 SE6       29.99R
IONIA          CLOUDY    71  71  99 NE5       29.99S FOG
KALAMAZOO      CLOUDY    75  70  84 SW6       29.99S HAZE
LUDINGTON      CLOUDY    74  72  91 E5        29.98F
MARSHALL       CLOUDY    73  70  89 SW3       29.99S
MOUNT PLEASANT CLOUDY    73  66  79 NE5       30.00F
MUSKEGON       PTSUNNY   78  70  76 SE7       29.98R
SOUTH HAVEN    CLOUDY    76  74  93 CALM      29.98R
$$
MIZ016>042-221700-
NORTHERN LOWER MICHIGAN

CITY           SKY/WX    TMP DP  RH WIND       PRES   REMARKS
ALPENA         PTSUNNY   71  63  75 CALM      30.02F
BEAVER ISLAND  CLOUDY    69  66  90 E8        30.00S
BELLAIRE       CLOUDY    73  65  74 S3        30.00S
CADILLAC       CLOUDY    70  65  82 SE6       30.02S
CHARLEVOIX     CLOUDY    73  68  85 E8        30.03S
FRANKFORT      CLOUDY    72  67  83 SE5       29.98F
GAYLORD        CLOUDY    68  62  81 S5        30.04S
GRAYLING       CLOUDY    73  67  81 S3        30.04S
HARBOR SPRINGS CLOUDY    70  65  84 E5        30.01S
HOUGHTON LAKE  CLOUDY    71  64  78 SE6       30.03S
MANISTEE       CLOUDY    72  66  83 SE3       29.99S
OSCODA         CLOUDY    70  64  81 E3        30.02F
PELLSTON       CLOUDY    69  65  86 SE5       30.02S
ROGERS CITY    SUNNY     73  67  84 NE7       30.03S
TRAVERSE CITY  CLOUDY    75  65  70 E5        29.98S
$$
MIZ007>008-015-221700-
EASTERN UPPER MICHIGAN

CITY           SKY/WX    TMP DP  RH WIND       PRES   REMARKS
KINROSS        PTSUNNY   73  66  78 SE6       30.02S
MACKINAC ISLAN CLOUDY    66  64  94 E3        30.02S
NEWBERRY       CLOUDY    66  63  92 S6        30.01S
S. S. MARIE    CLOUDY    68  64  87 SE7       30.03R
MUNISING         N/A     73  64  73 CALM      29.98S
$$
MIZ004>006-011>014-085-221700-
CENTRAL UPPER MICHIGAN

CITY           SKY/WX    TMP DP  RH WIND       PRES   REMARKS
MANISTIQUE     CLOUDY    69  65  86 E5        30.00R
ESCANABA       CLOUDY    72  63  73 SE8       29.98S
MENOMINEE      CLOUDY    70  64  83 E6        29.97S
SAWYER-GWINN   PTSUNNY   73  63  68 S7        30.00R
$$
MIZ001>003-009>011-084-221700-
WESTERN UPPER MICHIGAN

CITY           SKY/WX    TMP DP  RH WIND       PRES   REMARKS
IRON MOUNTAIN  CLOUDY    65  64  97 CALM      29.98S FOG
HOUGHTON       CLOUDY    66  59  78 E10       29.99R
COPPER HARBOR    N/A     61  56  83 CALM      29.98S
IRONWOOD       CLOUDY    70  66  88 CALM      29.94S
$$

ABBREVIATIONS USED IN REMARKS
   TC - TEMPERATURE IN CELSIUS
  WCI - WIND CHILL INDEX
   HX - HEAT INDEX
  VSB - VISIBILITY




USA.gov is the U.S. government's official web portal to all federal, state and local government web resources and services.